sat.trackr.live / text

‹ back to catalog

STARLINK-30149

NORAD 57516 · 2023-113X

PAYLOAD ACTIVE UNKNOWN

§ Identity

Operator
Country
US
Launch date
2023-08-07
Launch site
AFETR
Launch vehicle
Mass (kg)
RCS (m²)

Purposes: comms

External: N2YO · Heavens-Above · Gunter

§ Orbital elements

Epoch: 2026-05-25T04:06:32.245920Z

Period
94.27 min
Inclination
43.0058°
Eccentricity
0.0001942
Mean motion
15.27584937 rev/d
Perigee alt
481.7 km
Apogee alt
484.4 km
Semi-major
6,861.2 km
B*
5.4980e-5
RAAN
304.0100°
Arg perigee
270.5541°
Mean anomaly
89.5088°
Rev number
15,527

§ Raw data

STARLINK-301491 57516U 23113X   26145.17120655  .00001251  00000+0  54980-4 0  99972 57516  43.0058 304.0100 0001942 270.5541  89.5088 15.27584937155273

JSON: /api/v1/satellites/57516 · /tle

For live sub-satellite position, see the globe view (requires WebGL).

§ Visibility from observer

Set your observer location to see the next 7 days of passes ≥ 10°. The values pass through the URL so the page stays shareable.

No JS? Fill the form by hand. The geolocation button needs JavaScript.